Location: Bletchingley
(51.2333°N, 0.1000°W)
Time: 14:47:03
(UTC+00:00)

Cosmos 2266 Rocket - Pass Details

Date: 26 January 2021
Orbit: 934 x 1008 km, 82.9° (Epoch: 05 March)

Event Time Altitude Azimuth Distance (km) Brightness Sun altitude
Rises 21:51:32 0° 247° (WSW) 3,671 7.3 -47.0°
Reaches altitude 10° 21:55:18 10° 270° (W) 2,713 6.7 -47.5°
Enters shadow 21:55:42 11° 273° (W) 2,635 6.6 -47.5°
Exits shadow 22:01:58 11° 337° (NNW) 2,633 6.7 -48.3°
Drops below altitude 10° 22:02:12 10° 339° (NNW) 2,677 6.7 -48.3°
Sets 22:06:00 0° 2° (N) 3,629 7.3 -48.8°
